Temp
58 58 58 56 55 53 49 49 56 66 64 57 46 50 54 60 65 68 63 61 60 59 60 57 57 60 62 69 66 61 60 53 51 58 63 66 63 60 54 51 47 42 44 52
58 58 57 56 54 54 46 49 49 63 64 50 48 53 59 62 64 63 63 61 61 62 57 53 58 61 67 69 65 57 58 51 47 54 56 59 60 58 52 50 48 45 47 52
58 58 57 56 55 54 48 50 52 55 54 49 49 48 52 57 66 63 63 59 60 59 55 54 54 59 66 67 66 68 63 50 51 49 55 57 57 60 57 55 47 47 50 56
58 58 57 56 55 53 50 49 45 47 46 49 47 47 52 55 56 61 61 59 59 53 48 52 52 58 60 65 65 61 58 51 48 54 58 59 62 63 61 55 54 55 57 56
58 58 57 56 55 53 50 47 46 46 44 45 47 47 47 54 56 55 56 55 59 57 49 51 50 53 52 56 58 55 54 50 49 53 61 59 59 63 63 62 60 57 57 57
58 58 58 56 55 52 47 45 47 47 44 44 45 45 50 55 56 58 61 58 55 54 57 58 58 58 58 58 54 55 52 49 47 45 56 58 53 58 61 61 60 60 56 61
58 58 58 57 56 51 44 44 44 45 43 46 48 52 54 55 54 51 58 58 53 59 59 58 52 53 52 54 54 52 50 47 47 45 46 41 58 64 64 63 62 59 59 62
58 58 58 58 56 54 45 44 45 43 40 45 50 51 52 52 51 51 54 58 58 55 52 50 46 47 49 51 51 48 49 46 44 43 42 49 56 61 61 59 58 61 60 64
58 58 59 58 57 55 45 45 45 45 41 44 51 48 48 44 43 47 52 57 54 54 47 47 38 39 42 45 50 48 47 46 46 40 40 40 50 61 64 62 51 60 61 62
58 58 58 58 58 55 46 45 46 45 41 44 46 46 46 48 44 42 44 50 50 49 43 41 39 41 47 41 40 41 41 41 41 40 40 46 56 61 64 51 49 59 62 60
58 58 58 58 57 57 47 45 46 46 41 43 49 52 48 48 45 42 47 46 46 45 40 40 39 39 42 40 43 41 41 39 38 39 38 38 58 58 53 56 59 61 62 63
57 57 58 57 57 56 51 43 47 47 43 45 49 54 57 57 56 47 44 45 43 46 42 41 40 41 41 39 38 46 42 46 43 45 44 52 55 54 60 59 57 59 59 62
57 57 57 57 56 56 52 43 43 43 41 43 45 49 54 52 54 57 47 45 48 46 47 43 40 40 42 38 40 43 47 48 45 49 50 53 55 59 61 61 60 61 61 61
56 57 57 57 56 56 55 43 43 43 41 38 46 55 51 55 53 56 55 53 50 48 47 44 41 40 45 40 43 42 47 48 45 44 50 52 56 58 58 58 59 60 59 61
56 56 56 56 56 55 47 44 45 45 44 38 39 47 50 52 52 54 54 51 48 46 45 41 42 42 43 41 41 39 47 46 43 45 50 48 50 55 58 56 57 57 57 57
56 56 56 56 55 53 46 44 47 47 45 40 37 45 48 52 55 53 51 49 48 47 45 44 44 46 51 45 37 46 47 49 49 48 52 52 54 56 58 56 57 58 58 58
56 55 55 55 54 45 45 45 48 49 45 41 38 40 51 53 53 52 51 49 48 47 44 42 43 45 50 42 39 46 49 51 52 53 52 49 53 52 57 59 59 60 60 59
55 55 55 54 54 51 47 49 51 48 44 43 36 40 45 52 49 48 47 47 46 46 44 44 43 45 43 41 47 51 54 55 56 57 57 56 57 58 58 59 58 56 56 57
55 55 54 48 46 45 48 57 54 47 46 38 38 36 40 50 45 45 47 45 43 46 43 45 45 43 43 48 49 51 53 52 53 55 56 55 54 55 57 58 58 56 55 56
54 49 46 44 47 57 56 48 44 44 42 40 38 40 40 46 43 43 43 42 40 39 43 48 43 44 50 52 53 54 54 55 55 51 51 54 54 55 57 57 58 59 58 56
47 43 43 47 54 48 44 41 39 40 38 39 40 40 41 47 43 41 43 40 40 36 41 41 40 40 49 54 54 55 56 56 56 56 56 57 56 56 56 57 58 59 58 57
47 45 45 45 45 41 39 38 40 39 41 43 42 44 43 44 46 43 42 38 39 36 42 42 40 46 51 53 54 55 56 56 56 58 57 57 58 57 56 57 58 58 59 60
48 45 43 42 41 34 37 37 38 39 44 46 45 44 45 45 47 43 40 38 37 42 39 41 44 49 52 53 54 54 56 57 57 57 57 56 56 57 56 55 57 57 57 60
44 42 33 38 37 38 40 41 43 47 46 45 44 43 43 43 45 46 38 41 41 42 38 41 46 51 52 53 54 54 54 54 54 55 56 55 55 54 55 55 55 55 55 56
43 43 35 38 44 43 45 46 44 48 46 45 44 43 43 46 46 46 43 44 42 43 43 46 50 51 52 53 54 54 54 54 53 54 54 54 53 53 53 54 55 54 55 55
44 43 40 43 42 43 45 45 45 49 45 44 45 45 42 46 45 45 45 44 41 45 48 50 51 50 51 52 54 54 54 53 52 52 52 52 50 50 51 54 54 55 55 55
44 41 42 43 43 43 44 45 46 45 47 44 42 42 43 47 44 43 43 43 48 50 49 49 51 50 50 51 53 54 54 52 51 50 50 51 51 52 51 50 52 53 54 54
MSLP
1020.11 1019.34 1018.50 1017.58 1016.52 1014.99 1013.79 1014.07 1013.57 1011.98 1011.62 1012.46 1013.64 1013.51 1012.57 1011.41 1010.07 1009.18 1008.92 1008.82 1008.84 1008.59 1008.33 1008.37 1008.32 1008.25 1008.11 1007.98 1007.92 1008.73 1009.01 1009.54 1009.13 1007.70 1006.72 1006.59 1006.92 1007.76 1008.84 1010.53 1011.92 1012.08 1011.14 1007.93
1020.19 1019.51 1018.73 1017.78 1016.76 1016.06 1015.67 1015.44 1014.54 1012.30 1012.07 1013.57 1014.43 1013.68 1012.85 1011.79 1010.81 1010.26 1009.74 1009.59 1009.49 1009.15 1009.29 1009.36 1009.01 1008.79 1008.70 1008.46 1008.61 1008.97 1009.21 1009.75 1009.58 1008.11 1007.23 1006.55 1006.63 1007.18 1008.03 1009.06 1010.04 1010.84 1010.44 1007.54
1020.32 1019.67 1018.85 1017.93 1016.93 1016.09 1015.96 1015.94 1015.61 1014.46 1014.11 1014.89 1014.90 1014.72 1013.88 1012.52 1011.34 1011.00 1010.66 1010.61 1010.24 1010.21 1010.41 1010.45 1010.19 1009.73 1009.29 1009.23 1009.20 1009.27 1009.30 1010.11 1009.99 1009.21 1007.93 1007.27 1006.77 1006.58 1007.28 1007.96 1009.31 1009.60 1008.75 1007.15
1020.51 1019.88 1019.05 1018.14 1017.09 1016.18 1016.20 1016.74 1017.73 1017.42 1016.65 1016.27 1015.86 1015.33 1014.56 1013.63 1012.63 1011.84 1011.47 1011.34 1011.44 1011.49 1011.57 1011.47 1011.26 1010.90 1010.38 1009.81 1009.77 1009.75 1010.19 1010.52 1010.21 1009.28 1008.37 1007.56 1006.80 1006.40 1006.55 1007.27 1007.20 1007.42 1006.98 1007.03
1020.69 1020.16 1019.48 1018.59 1017.40 1016.29 1016.75 1018.21 1018.53 1017.95 1017.57 1017.06 1016.43 1016.03 1015.52 1014.63 1013.73 1013.11 1012.65 1012.49 1012.19 1012.04 1012.23 1012.41 1012.28 1011.82 1011.61 1011.11 1010.69 1010.74 1010.97 1011.04 1010.88 1009.90 1008.60 1007.78 1007.07 1006.25 1006.21 1006.29 1006.33 1006.65 1006.68 1006.44
1020.86 1020.40 1019.89 1019.19 1018.15 1016.97 1018.18 1019.08 1018.86 1018.57 1018.46 1017.73 1017.16 1016.80 1016.01 1015.25 1014.62 1013.78 1013.37 1013.25 1012.98 1012.71 1012.87 1012.93 1012.42 1012.28 1011.97 1011.47 1011.48 1011.63 1011.77 1011.76 1011.80 1011.00 1009.60 1008.39 1007.40 1006.56 1006.22 1005.91 1006.14 1006.22 1006.52 1005.91
1021.04 1020.68 1020.25 1019.78 1019.32 1019.02 1019.45 1019.85 1019.67 1019.29 1019.22 1018.42 1017.83 1017.15 1016.63 1015.96 1015.58 1015.24 1014.13 1013.81 1013.65 1013.30 1013.07 1012.48 1012.36 1012.25 1011.98 1011.73 1011.52 1011.86 1012.10 1012.32 1012.23 1011.87 1010.64 1009.27 1007.36 1006.41 1006.06 1006.39 1006.57 1006.66 1006.48 1006.28
1021.12 1020.85 1020.52 1020.13 1019.73 1019.37 1019.60 1019.90 1019.89 1020.02 1019.74 1019.12 1018.16 1017.62 1017.08 1016.54 1016.15 1015.81 1015.20 1014.55 1014.32 1014.11 1013.86 1013.72 1013.65 1013.20 1012.85 1012.11 1011.85 1011.94 1012.40 1012.83 1012.94 1012.24 1011.12 1009.61 1007.90 1006.87 1006.65 1006.57 1007.32 1007.52 1007.14 1006.84
1021.25 1021.04 1020.74 1020.41 1020.08 1019.71 1019.79 1020.06 1020.03 1020.09 1020.27 1019.41 1018.55 1018.06 1017.72 1017.59 1017.30 1016.73 1015.82 1015.12 1014.68 1014.60 1014.87 1015.04 1015.17 1014.80 1014.05 1013.58 1012.60 1012.44 1012.83 1013.04 1013.28 1013.12 1011.86 1010.43 1008.93 1007.89 1007.57 1007.11 1007.55 1007.85 1007.75 1007.55
1021.34 1021.16 1020.91 1020.64 1020.32 1020.01 1020.09 1020.36 1020.18 1020.22 1020.41 1019.31 1018.76 1018.24 1017.99 1017.75 1017.80 1017.87 1017.20 1016.64 1015.88 1015.65 1016.13 1016.32 1016.38 1015.76 1014.88 1014.62 1014.14 1013.91 1013.92 1013.94 1013.83 1013.32 1012.30 1010.83 1009.74 1008.81 1008.22 1008.53 1009.16 1008.43 1008.26 1008.25
1021.46 1021.27 1021.07 1020.84 1020.57 1020.33 1020.45 1020.58 1020.37 1020.48 1020.54 1019.37 1018.61 1018.09 1017.74 1017.78 1018.02 1018.12 1017.63 1017.47 1017.30 1017.16 1017.68 1017.83 1017.56 1016.86 1016.00 1015.55 1014.73 1014.51 1014.62 1014.60 1014.38 1013.73 1012.81 1011.77 1010.31 1009.32 1009.56 1009.82 1009.30 1009.05 1008.74 1008.53
1021.54 1021.40 1021.25 1021.08 1020.88 1020.61 1020.48 1020.81 1020.64 1020.62 1020.72 1019.49 1018.61 1017.69 1017.17 1017.23 1017.19 1017.59 1017.93 1018.33 1018.21 1018.02 1018.33 1018.53 1018.20 1017.74 1016.92 1016.58 1015.93 1014.81 1014.83 1014.45 1014.44 1014.12 1012.94 1012.03 1011.36 1010.95 1010.53 1010.22 1010.00 1009.57 1009.32 1008.98
1021.61 1021.51 1021.36 1021.18 1020.97 1020.76 1020.74 1021.11 1021.11 1020.96 1020.81 1019.50 1018.53 1017.22 1016.69 1016.56 1016.74 1016.63 1017.69 1017.89 1017.64 1017.97 1018.03 1018.53 1018.77 1018.46 1017.61 1017.22 1016.35 1015.53 1014.73 1014.40 1014.50 1014.03 1012.83 1012.17 1011.61 1011.07 1010.71 1010.54 1010.54 1010.01 1009.59 1009.30
1021.65 1021.53 1021.35 1021.15 1020.97 1020.84 1020.76 1021.20 1021.18 1021.15 1021.26 1020.69 1018.39 1017.00 1016.63 1016.22 1016.22 1016.41 1016.56 1016.80 1017.32 1017.62 1018.02 1018.61 1018.76 1018.53 1017.44 1017.10 1016.54 1016.25 1015.33 1014.79 1014.42 1013.91 1013.00 1012.27 1011.52 1011.26 1011.03 1010.68 1010.49 1010.20 1009.90 1009.60
1021.64 1021.51 1021.32 1021.13 1020.95 1020.80 1020.82 1020.96 1020.88 1020.91 1021.35 1021.08 1019.34 1017.56 1016.48 1016.12 1015.92 1016.02 1016.32 1016.84 1017.56 1018.05 1018.42 1018.79 1018.53 1017.66 1017.49 1016.87 1016.84 1016.11 1014.94 1014.46 1014.45 1013.82 1012.98 1012.90 1012.22 1011.46 1011.31 1011.20 1010.65 1010.28 1010.11 1009.58
1021.57 1021.45 1021.28 1021.10 1020.93 1020.78 1020.93 1021.12 1020.98 1020.64 1020.91 1021.03 1020.34 1018.48 1017.23 1016.16 1015.49 1015.57 1016.16 1016.77 1017.44 1017.73 1017.96 1017.85 1017.46 1016.77 1016.58 1016.59 1016.50 1014.96 1014.69 1014.36 1014.22 1013.70 1012.93 1012.58 1012.00 1011.41 1010.88 1010.64 1010.33 1010.02 1009.82 1009.53
1021.44 1021.31 1021.15 1020.97 1020.89 1021.14 1020.95 1020.85 1020.72 1020.70 1020.87 1021.01 1020.76 1019.39 1017.29 1016.48 1015.93 1015.99 1016.42 1016.62 1017.06 1017.53 1017.61 1017.66 1017.39 1016.77 1016.53 1016.35 1015.99 1015.23 1014.53 1014.04 1013.49 1012.99 1012.68 1011.92 1011.40 1010.74 1010.07 1009.87 1009.57 1009.36 1009.11 1008.80
1021.25 1021.08 1020.89 1020.69 1020.60 1020.72 1020.46 1020.03 1019.88 1020.45 1020.94 1021.09 1021.32 1019.99 1018.35 1016.90 1016.85 1017.14 1016.99 1017.18 1017.28 1017.47 1017.55 1017.45 1017.31 1016.75 1016.47 1016.17 1015.59 1014.83 1013.88 1013.36 1012.65 1012.04 1011.76 1011.05 1010.40 1009.94 1009.14 1008.65 1008.53 1008.31 1007.97 1007.57
1021.00 1020.84 1020.66 1020.81 1020.84 1020.72 1020.32 1019.90 1020.08 1020.29 1020.91 1021.22 1021.32 1020.80 1019.13 1017.55 1017.70 1017.75 1017.56 1017.69 1017.87 1017.61 1017.57 1017.35 1017.35 1016.87 1016.33 1015.32 1014.44 1013.89 1013.16 1012.72 1011.89 1011.22 1010.60 1009.85 1009.25 1008.48 1007.96 1007.68 1007.34 1007.04 1006.67 1006.58
1020.66 1020.78 1020.96 1020.97 1020.69 1020.12 1020.18 1020.25 1020.50 1020.55 1021.00 1021.03 1020.99 1020.46 1019.54 1018.64 1018.40 1018.27 1018.39 1018.37 1018.61 1018.21 1017.77 1017.23 1016.90 1016.10 1014.91 1014.78 1014.16 1013.44 1012.53 1011.76 1010.85 1010.26 1009.28 1008.36 1007.88 1007.29 1006.71 1006.21 1005.93 1005.62 1005.29 1005.40
1020.88 1021.15 1021.33 1020.91 1020.42 1020.39 1020.59 1020.73 1020.76 1020.76 1020.77 1020.51 1019.99 1019.90 1019.50 1018.53 1018.65 1018.69 1018.77 1018.82 1018.81 1018.58 1018.02 1017.53 1016.94 1016.17 1014.87 1014.00 1013.43 1012.34 1011.54 1010.62 1010.02 1009.31 1008.64 1007.70 1006.84 1006.34 1005.69 1004.81 1004.38 1004.36 1004.23 1004.17
1021.19 1021.42 1021.28 1021.12 1020.98 1020.88 1020.95 1020.68 1020.55 1020.38 1019.68 1019.27 1019.07 1018.80 1018.91 1018.50 1018.37 1018.50 1018.72 1018.76 1018.87 1018.56 1018.02 1017.72 1016.90 1015.62 1014.55 1013.82 1012.62 1011.62 1010.83 1010.18 1009.38 1008.74 1007.97 1007.18 1006.04 1005.65 1005.19 1004.30 1003.49 1003.33 1003.22 1003.08
1021.15 1021.29 1021.30 1021.28 1021.16 1021.05 1020.74 1020.11 1019.69 1019.37 1018.55 1018.23 1018.22 1018.39 1018.25 1018.29 1018.24 1018.38 1018.49 1018.54 1018.52 1017.99 1017.86 1017.33 1016.54 1015.41 1014.54 1013.39 1012.60 1011.45 1010.53 1009.99 1009.36 1008.74 1008.23 1007.54 1006.75 1006.04 1005.35 1004.56 1003.92 1003.44 1002.82 1002.32
1021.15 1021.31 1021.41 1021.11 1020.54 1019.87 1019.05 1018.68 1018.14 1017.60 1017.56 1017.71 1017.81 1018.04 1018.08 1018.04 1017.95 1017.87 1018.12 1018.07 1017.94 1017.57 1017.52 1017.13 1016.43 1015.50 1014.74 1013.52 1012.65 1011.96 1011.16 1010.52 1009.90 1009.23 1008.47 1007.66 1006.82 1005.97 1005.28 1004.57 1003.83 1003.07 1002.28 1001.78
1021.00 1021.07 1020.68 1019.96 1019.04 1018.57 1018.13 1017.87 1017.71 1017.13 1017.11 1017.37 1017.64 1017.79 1017.86 1017.67 1017.62 1017.45 1017.52 1017.51 1017.21 1017.13 1017.00 1016.63 1016.02 1015.47 1014.94 1014.01 1013.30 1012.65 1011.93 1011.29 1010.63 1009.89 1009.02 1008.16 1007.30 1006.28 1005.27 1004.41 1003.41 1002.53 1001.62 1000.88
1020.68 1020.40 1019.78 1019.03 1018.99 1018.34 1017.94 1017.46 1017.24 1016.60 1016.79 1017.10 1017.19 1017.47 1017.62 1017.13 1017.08 1017.07 1016.94 1016.88 1016.74 1016.57 1016.18 1015.94 1015.71 1015.44 1015.00 1014.56 1013.92 1013.27 1012.76 1012.24 1011.57 1010.78 1010.02 1009.03 1007.96 1006.80 1006.02 1004.93 1003.84 1003.04 1002.27 1001.58
1020.02 1019.45 1018.92 1018.94 1018.63 1018.29 1017.75 1017.31 1016.92 1016.49 1016.76 1017.27 1017.28 1017.35 1016.92 1016.78 1016.74 1016.75 1016.64 1016.43 1015.83 1015.56 1015.63 1015.52 1015.33 1015.21 1014.94 1014.65 1014.17 1013.74 1013.21 1012.71 1012.13 1011.48 1010.66 1009.87 1008.75 1007.52 1006.42 1005.58 1004.98 1004.26 1003.39 1002.73
Wind_Speed
18 20 23 24 25 29 7 2 4 3 3 5 1 2 4 5 5 5 2 1 4 4 1 2 3 4 1 8 2 7 5 5 6 13 2 3 5 7 5 7 5 2 4 10
17 20 22 24 24 21 3 3 2 4 3 3 3 5 5 3 6 6 5 5 4 4 3 2 1 4 2 9 5 2 4 2 4 11 7 1 5 5 5 5 5 7 7 9
17 19 21 23 25 21 2 3 3 5 6 2 4 4 4 7 7 2 3 3 3 6 7 5 3 6 2 5 4 5 4 3 6 8 8 3 4 5 6 6 5 6 8 7
15 18 21 23 26 18 1 5 1 3 2 3 3 1 3 4 7 5 7 5 4 0 3 4 4 4 7 5 7 4 4 3 2 7 8 5 6 6 8 6 5 8 8 10
14 16 19 22 26 16 6 3 3 4 1 2 1 4 3 4 6 2 5 4 8 2 1 1 3 1 2 6 4 4 4 2 1 5 5 6 6 7 6 6 5 6 4 6
13 14 16 19 24 13 4 2 1 3 4 4 3 1 3 4 4 2 4 3 3 2 4 7 10 6 7 6 4 3 2 3 2 5 4 7 5 5 5 4 1 2 6 7
11 13 14 16 17 9 2 0 2 4 2 2 2 3 3 5 4 3 5 4 3 4 7 7 3 5 5 6 10 4 3 5 4 5 2 5 7 6 5 2 4 6 4 4
9 11 13 14 15 14 3 0 3 3 1 1 2 5 4 6 6 2 3 3 2 6 5 3 5 6 7 5 2 3 7 4 3 5 6 4 2 3 1 4 1 3 3 4
7 9 12 13 14 14 3 2 1 3 3 3 1 2 2 2 3 6 4 5 5 6 3 3 3 3 2 5 10 5 5 4 3 1 4 9 3 6 5 2 4 3 3 5
6 8 10 13 14 13 3 1 2 3 2 4 3 2 2 0 1 2 4 8 8 4 4 3 2 3 1 2 3 5 5 4 2 1 4 4 4 9 5 4 4 3 1 1
4 7 9 11 13 14 4 2 2 3 2 5 4 3 3 1 1 2 5 4 4 5 6 3 2 1 2 3 3 1 1 1 2 1 2 2 8 6 3 3 3 3 4 3
4 6 8 10 11 12 5 2 2 1 3 6 3 6 5 6 10 4 1 4 3 4 4 1 1 3 2 1 4 3 1 4 3 6 5 4 4 2 4 3 4 4 3 4
3 5 7 9 10 10 6 1 3 2 3 5 3 2 1 1 6 5 4 3 3 1 4 3 1 3 3 2 5 3 5 2 1 4 3 4 6 4 2 3 5 8 5 5
3 5 7 9 10 9 6 0 1 3 2 2 6 3 4 1 2 6 6 3 3 4 2 2 2 2 3 3 4 3 5 4 3 5 7 7 3 5 5 10 8 6 7 6
4 6 8 9 10 9 2 1 1 2 3 2 6 8 4 7 3 8 6 4 2 1 1 2 4 2 2 2 1 3 4 6 4 8 7 4 7 7 5 7 11 6 6 9
5 6 8 8 8 7 2 3 2 1 2 3 4 4 5 5 5 5 5 5 4 3 4 4 3 4 2 2 3 6 3 3 2 5 5 6 13 12 9 8 8 9 10 10
6 7 8 8 6 2 2 4 2 3 2 3 5 6 5 5 4 3 3 3 1 2 1 1 1 3 1 1 3 4 6 7 8 9 8 11 11 10 9 11 16 16 15 13
7 8 9 9 6 3 3 2 1 6 4 3 1 5 5 4 3 3 3 3 2 3 1 1 2 4 1 2 4 9 13 12 14 13 11 15 15 17 20 17 14 16 16 16
9 9 7 2 2 2 3 4 7 1 4 2 1 1 4 5 2 1 4 3 2 2 1 1 2 3 2 5 8 14 16 13 18 19 20 21 20 20 19 18 17 17 17 15
7 2 3 2 2 6 3 3 3 4 3 2 2 1 4 2 3 2 3 2 1 3 3 2 1 4 4 5 12 15 17 19 19 17 19 15 16 14 16 17 16 16 14 15
2 2 1 3 7 3 2 1 0 1 2 3 4 5 2 2 1 2 1 0 2 3 4 2 3 4 4 8 14 15 16 16 16 16 17 15 14 15 14 18 17 14 15 14
3 2 1 2 3 3 0 2 2 3 4 3 4 4 5 3 2 2 2 1 2 3 3 2 3 4 7 15 20 19 16 16 15 14 14 17 14 8 11 15 12 12 13 13
1 2 1 3 1 2 4 5 3 2 3 4 2 1 2 1 1 2 2 2 3 2 3 2 4 6 13 17 16 16 15 13 12 14 14 14 14 13 12 13 10 12 11 11
2 3 3 4 4 5 5 5 4 5 3 3 2 1 2 1 1 2 2 2 1 3 4 3 4 11 14 17 14 14 15 14 15 15 15 16 16 15 14 12 12 12 12 12
2 3 5 6 4 3 4 4 3 3 2 2 2 3 2 1 1 0 1 1 2 2 2 2 5 11 11 14 15 14 14 14 14 15 16 17 18 16 15 15 13 12 11 10
2 4 3 3 1 3 2 2 3 3 4 2 3 2 0 3 2 2 2 1 1 3 3 3 4 6 8 10 12 12 12 12 12 13 14 16 17 16 15 14 15 15 16 15
3 4 3 3 4 5 4 2 4 1 3 3 3 1 2 2 2 0 3 3 4 3 3 3 3 4 6 6 7 10 11 11 12 13 14 13 14 15 17 18 16 14 14 13
Wind_Direction
341 343 343 341 342 340 47 6 63 311 12 53 32 134 208 292 292 0 319 106 223 228 251 224 230 172 108 336 158 152 216 158 239 234 243 190 188 201 155 129 238 147 151 272
344 344 343 342 345 354 329 57 272 316 79 96 355 315 317 283 341 351 350 0 24 355 25 315 26 17 102 16 51 115 176 234 338 332 355 326 202 183 138 109 86 190 142 261
347 346 345 345 346 350 80 67 47 339 46 32 105 18 345 326 333 85 15 4 47 25 20 30 349 348 356 340 17 35 141 150 180 201 227 242 263 197 171 137 132 173 216 261
349 349 348 348 348 352 48 26 31 176 349 2 29 57 358 342 352 0 24 25 48 22 42 357 3 354 332 339 348 34 90 225 215 266 269 271 253 229 171 203 208 158 215 193
352 354 353 352 352 352 73 75 47 0 97 298 335 354 38 4 325 348 350 42 320 346 356 175 267 238 218 249 317 30 351 255 345 289 343 346 283 271 256 242 140 297 156 254
354 356 358 1 1 4 68 338 2 107 321 355 75 334 322 334 353 324 91 333 339 6 348 300 253 235 258 244 221 231 201 155 72 260 324 326 301 264 281 244 355 215 176 232
356 359 1 9 13 34 107 31 103 64 312 51 79 338 335 335 330 261 307 25 29 294 330 280 248 266 268 254 256 200 220 167 157 229 2 241 248 304 205 240 72 18 355 331
360 360 6 11 11 20 81 14 81 88 8 301 342 354 330 330 319 296 292 328 316 313 338 14 3 333 359 315 260 253 194 138 239 178 194 280 284 227 126 119 156 338 359 19
0 360 8 12 13 13 73 42 92 93 103 260 328 335 346 324 323 335 298 319 317 29 65 78 162 232 246 315 328 54 69 90 149 124 191 209 262 331 342 279 252 40 350 316
359 2 9 12 13 17 79 19 30 91 101 263 170 205 216 36 29 254 310 331 345 21 26 64 167 262 277 270 291 332 346 0 157 264 242 307 294 299 304 167 271 301 27 282
358 4 6 11 12 12 49 273 354 99 170 271 207 234 172 22 116 197 288 34 344 19 46 46 300 282 294 332 275 309 152 98 298 339 260 248 350 354 58 274 291 301 318 302
356 358 2 8 7 7 45 31 341 22 158 243 260 250 256 204 211 139 344 183 235 207 72 356 304 325 346 181 292 351 301 168 224 174 224 244 288 337 317 309 299 301 281 310
347 350 354 359 3 5 31 289 313 40 24 305 353 278 154 82 200 177 141 264 202 162 173 169 193 277 131 265 254 302 319 150 224 4 259 253 299 277 259 1 321 306 302 290
330 343 345 351 352 351 2 331 240 94 112 62 283 339 296 268 182 194 200 159 59 102 93 146 177 212 166 235 245 189 220 6 255 269 290 307 320 296 336 330 322 321 333 319
329 334 338 341 342 343 10 197 236 169 113 238 283 301 269 289 230 219 199 161 119 100 68 143 230 235 129 226 35 263 198 215 194 257 258 235 268 298 314 307 304 301 316 316
318 323 327 331 336 356 54 16 318 62 115 72 335 297 286 306 299 144 173 171 176 163 179 210 250 256 206 251 236 258 304 319 211 266 290 243 268 279 275 270 262 279 290 278
306 312 312 315 326 49 137 186 219 145 59 69 325 329 301 306 334 22 50 45 162 169 211 255 289 312 230 343 258 302 293 274 267 263 271 277 257 257 254 271 277 280 277 267
304 305 306 307 305 268 327 284 273 137 98 77 19 278 336 1 341 338 350 12 27 16 227 348 358 317 59 283 280 291 288 296 292 294 290 273 275 276 272 268 261 264 263 265
301 305 313 45 43 25 272 120 124 73 125 151 108 184 265 351 15 316 356 43 4 290 28 285 66 323 274 237 257 281 289 288 289 288 290 283 275 274 270 269 267 258 255 257
307 61 51 346 261 279 89 358 11 13 348 58 210 153 266 78 5 337 0 29 18 343 275 281 185 244 253 283 270 280 288 289 286 290 287 284 285 285 278 261 257 255 250 248
42 49 221 254 316 51 36 291 131 309 276 185 233 187 258 314 84 246 50 10 336 7 287 48 307 286 267 294 307 305 298 298 292 280 286 291 283 283 287 276 254 252 254 250
175 186 325 333 47 39 38 254 302 211 235 203 185 220 193 269 123 95 347 84 29 266 321 13 296 266 284 319 317 318 318 318 317 319 322 328 308 310 324 330 277 263 259 253
76 54 24 62 266 47 207 202 240 252 210 212 191 265 181 25 97 86 78 46 242 325 22 274 248 283 315 320 325 327 333 334 340 352 344 333 336 336 335 324 322 324 306 280
133 147 291 185 209 235 198 197 200 235 180 172 151 130 146 210 102 140 76 237 54 330 354 310 291 318 319 328 333 344 347 345 349 349 342 338 337 334 329 323 315 304 295 291
205 157 231 223 236 258 239 231 280 254 140 123 83 49 100 192 151 174 144 227 238 167 255 239 286 313 322 338 351 354 353 353 351 348 345 345 344 342 338 335 325 311 297 282
216 233 264 231 298 288 298 247 248 201 136 97 69 100 129 207 161 175 255 270 14 274 226 237 291 305 325 345 347 351 349 357 348 347 346 346 346 345 342 349 4 7 17 24
229 249 228 236 266 231 239 214 250 143 106 169 120 147 217 79 125 267 162 213 220 227 264 255 252 280 310 322 347 346 344 345 350 342 342 344 347 354 2 6 359 0 13 16